sat.trackr.live / text

‹ back to catalog

STARLINK-31427

NORAD 59241 · 2024-049L

PAYLOAD ACTIVE UNKNOWN

§ Identity

Operator
Country
US
Launch date
2024-03-16
Launch site
AFETR
Launch vehicle
Mass (kg)
RCS (m²)

Purposes: comms

External: N2YO · Heavens-Above · Gunter

§ Orbital elements

Epoch: 2026-09-20T21:04:19.850592Z

Period
94.27 min
Inclination
43.0037°
Eccentricity
0.0000845
Mean motion
15.27557606 rev/d
Perigee alt
482.5 km
Apogee alt
483.7 km
Semi-major
6,861.3 km
B*
1.5259e-4
RAAN
121.5270°
Arg perigee
262.1968°
Mean anomaly
97.8788°
Rev number
14,225

§ Raw data

STARLINK-314271 59241U 24049L   26263.87800753  .00003936  00000+0  15259-3 0  99922 59241  43.0037 121.5270 0000845 262.1968  97.8788 15.27557606142254

JSON: /api/v1/satellites/59241 · /tle

For live sub-satellite position, see the globe view (requires WebGL).

§ Visibility from observer

Set your observer location to see the next 7 days of passes ≥ 10°. The values pass through the URL so the page stays shareable.

No JS? Fill the form by hand. The geolocation button needs JavaScript.